sat.trackr.live / text

‹ back to catalog

TJS-7

NORAD 49115 · 2021-077A

PAYLOAD ACTIVE UNKNOWN

§ Identity

Operator
Country
PRC
Launch date
2021-08-24
Launch site
XICLF
Launch vehicle
Mass (kg)
RCS (m²)

Purposes: comms

External: N2YO · Heavens-Above · Gunter

§ Orbital elements

Epoch: 2026-09-20T04:28:28.478208Z

Period
1,436.07 min
Inclination
0.1179°
Eccentricity
0.0001730
Mean motion
1.00273783 rev/d
Perigee alt
35,778.7 km
Apogee alt
35,793.3 km
Semi-major
42,164.2 km
B*
0.0000e+0
RAAN
260.3482°
Arg perigee
106.6757°
Mean anomaly
319.7138°
Rev number
1,050

§ Raw data

TJS-71 49115U 21077A   26263.18644072 -.00000129  00000+0  00000+0 0  99992 49115   0.1179 260.3482 0001730 106.6757 319.7138  1.00273783 10507

JSON: /api/v1/satellites/49115 · /tle

For live sub-satellite position, see the globe view (requires WebGL).

§ Visibility from observer

Set your observer location to see the next 7 days of passes ≥ 10°. The values pass through the URL so the page stays shareable.

No JS? Fill the form by hand. The geolocation button needs JavaScript.